1512259200.97,23049,3.0,73044.0,-13.85,-26.93,-27.39,0,*62
1512259202.21,23050,3.0,73050.8,-13.83,-26.87,-27.55,0,*63
1512259203.5,23051,3.0,73048.8,-13.83,-26.81,-27.45,0,*65
1512259204.8,23052,3.0,73052.3,-13.83,-26.71,-27.35,0,*6E
1512259206.02,23053,3.0,73048.8,-13.85,-27.03,-27.71,0,*6D
1512259207.26,23054,3.0,73054.0,-13.85,-26.93,-27.51,0,*60
1512259208.56,23055,3.0,73050.8,-13.83,-26.81,-27.45,0,*61
1512259209.85,23056,3.0,73052.3,-13.83,-26.97,-27.61,0,*63
1512259211.1,23057,3.0,73050.5,-13.85,-26.93,-27.67,0,*66
1512259212.32,23058,3.0,73048.0,-13.85,-26.87,-27.51,0,*69
1512259213.57,23059,3.0,73052.0,-13.85,-26.93,-27.55,0,*69
1512259214.78,23060,3.0,73052.5,-13.85,-26.87,-27.51,0,*62
1512259216.02,23061,3.0,73052.8,-13.83,-26.87,-27.51,0,*65
1512259217.29,23062,3.0,73050.0,-13.83,-26.81,-27.51,0,*60
1512259218.56,23063,3.0,73048.0,-13.85,-26.71,-27.23,0,*6D
1512259219.8,23064,3.0,73050.3,-13.83,-26.49,-27.13,0,*64
1512259221.05,23065,3.0,73050.3,-13.85,-26.65,-27.23,0,*6E
1512259222.3,23066,3.0,73048.8,-13.85,-26.65,-27.19,0,*64
1512259223.57,23067,3.0,73052.5,-13.85,-26.71,-27.39,0,*62
1512259224.85,23068,3.0,73048.5,-13.85,-26.77,-27.35,0,*67
1512259226.12,23069,3.0,73052.5,-13.83,-26.81,-27.51,0,*6B
1512259227.38,23070,3.0,73052.0,-13.83,-26.87,-27.61,0,*66
1512259228.65,23071,3.0,73050.3,-13.83,-26.87,-27.61,0,*67
1512259229.9,23072,3.0,73048.0,-13.85,-26.93,-27.55,0,*60
1512259231.14,23073,3.0,73052.0,-13.83,-26.87,-27.51,0,*66
1512259232.35,23074,3.0,73048.3,-13.85,-27.03,-27.71,0,*68
1512259233.6,23075,3.0,73050.5,-13.81,-26.87,-27.61,0,*61
1512259234.86,23076,3.0,73050.5,-13.83,-26.87,-27.45,0,*66
1512259236.13,23077,3.0,73050.8,-13.85,-26.77,-27.35,0,*69
1512259237.4,23078,3.0,73050.8,-13.83,-26.61,-27.19,0,*69
1512259238.67,23079,3.0,73048.0,-13.85,-26.71,-27.23,0,*66
1512259239.91,23080,3.0,73046.8,-13.83,-26.87,-27.51,0,*6A
1512259241.15,23081,3.0,73048.3,-13.85,-26.93,-27.51,0,*68
1512259242.39,23082,3.0,73048.3,-13.85,-27.03,-27.83,0,*6C
1512259243.64,23083,3.0,73052.3,-13.83,-27.03,-27.77,0,*60
1512259244.88,23084,3.0,73048.5,-13.83,-27.03,-27.67,0,*66
1512259246.17,23085,3.0,73052.3,-13.83,-26.71,-27.45,0,*63
1512259247.46,23086,3.0,73050.5,-13.83,-26.81,-27.45,0,*6F
1512259248.7,23087,3.0,73050.8,-13.83,-26.87,-27.51,0,*6D
1512259249.96,23088,3.0,73050.0,-13.83,-26.87,-27.45,0,*67
1512259251.23,23089,3.0,73052.3,-13.83,-26.81,-27.51,0,*65
1512259252.51,23090,3.0,73048.8,-13.81,-26.97,-27.61,0,*6B
1512259253.77,23091,3.0,73052.3,-13.83,-26.87,-27.45,0,*6F
1512259255.04,23092,3.0,73048.3,-13.83,-26.71,-27.29,0,*6F
1512259256.33,23093,3.0,73052.0,-13.83,-26.81,-27.45,0,*6B
1512259257.61,23094,3.0,73050.5,-13.83,-26.97,-27.67,0,*6B
1512259258.88,23095,3.0,73050.5,-13.81,-26.97,-27.61,0,*6E
1512259260.14,23096,3.0,73048.3,-13.81,-26.97,-27.67,0,*6B
1512259261.39,23097,3.0,73052.0,-13.83,-27.29,-27.89,0,*6C
1512259262.6,23098,3.0,73052.0,-13.85,-26.87,-27.51,0,*65
1512259263.84,23099,3.0,73054.0,-13.83,-26.87,-27.51,0,*62
1512259265.11,23100,3.0,73052.3,-13.83,-26.87,-27.61,0,*60
1512259266.38,23101,3.0,73052.5,-13.81,-26.97,-27.61,0,*62
1512259267.65,23102,3.0,73054.3,-13.83,-26.87,-27.61,0,*62
1512259268.92,23103,3.0,73054.0,-13.83,-26.65,-27.19,0,*60
1512259270.16,23104,3.0,73048.8,-13.83,-26.61,-27.13,0,*69
1512259271.43,23105,3.0,73054.0,-13.83,-26.71,-27.29,0,*60
1512259272.71,23106,3.0,73050.0,-13.83,-26.81,-27.51,0,*63
1512259273.93,23107,3.0,73050.8,-13.81,-26.87,-27.67,0,*63
1512259275.15,23108,3.0,73052.0,-13.81,-27.03,-27.67,0,*61
1512259276.41,23109,3.0,73054.8,-13.83,-27.19,-27.89,0,*69
1512259277.7,23110,3.0,73052.5,-13.83,-27.19,-27.83,0,*6B
1512259278.94,23111,3.0,73052.8,-13.85,-27.07,-27.83,0,*63
1512259280.23,23112,3.0,73056.5,-13.83,-27.19,-27.83,0,*69
1512259281.53,23113,3.0,73052.0,-13.83,-26.97,-27.61,0,*63
1512259282.77,23114,3.0,73056.8,-13.81,-27.03,-27.61,0,*6A
1512259284.05,23115,3.0,73054.5,-13.83,-26.81,-27.51,0,*61
1512259285.32,23116,3.0,73048.5,-13.83,-26.71,-27.29,0,*62
1512259286.62,23117,3.0,73054.0,-13.83,-26.81,-27.35,0,*61
1512259287.92,23118,3.0,73044.3,-13.79,-26.81,-27.61,0,*6A
1512259289.18,23119,3.0,73048.8,-13.81,-27.19,-27.83,0,*60
1512259290.45,23120,3.0,73056.3,-13.81,-27.45,-28.05,0,*62
1512259291.73,23121,3.0,73050.3,-13.81,-27.45,-28.05,0,*63
1512259292.98,23122,3.0,73050.5,-13.83,-27.29,-27.89,0,*63
1512259294.22,23123,3.0,73054.3,-13.83,-27.13,-27.77,0,*6A
1512259295.48,23124,3.0,73056.8,-13.83,-27.19,-27.89,0,*66
1512259296.74,23125,3.0,73048.3,-13.83,-27.19,-27.89,0,*67
1512259297.98,23126,3.0,73048.5,-13.83,-27.13,-27.77,0,*6F
1512259299.25,23127,3.0,73054.8,-13.85,-27.35,-28.05,0,*66
1512259300.52,23128,3.0,73052.0,-13.85,-27.23,-28.05,0,*6E
1512259301.77,23129,3.0,73056.0,-13.83,-27.29,-27.89,0,*68
1512259303.01,23130,3.0,73054.5,-13.85,-27.07,-27.83,0,*60
1512259304.31,23131,3.0,73054.8,-13.83,-26.97,-27.61,0,*63
1512259305.56,23132,3.0,73056.0,-13.85,-26.93,-27.55,0,*65
1512259306.78,23133,3.0,73056.5,-13.85,-27.07,-27.67,0,*69
1512259308.05,23134,3.0,73056.8,-13.81,-27.19,-27.83,0,*6F
1512259309.29,23135,3.0,73058.3,-13.85,-27.35,-27.93,0,*65
1512259310.53,23136,3.0,73052.5,-13.83,-27.29,-27.89,0,*66
1512259311.79,23137,3.0,73056.0,-13.83,-27.19,-27.89,0,*64
1512259313.06,23138,3.0,73058.5,-13.83,-27.13,-27.83,0,*6B
1512259314.31,23139,3.0,73058.0,-13.83,-27.29,-27.89,0,*69
1512259315.58,23140,3.0,73062.5,-13.83,-27.45,-28.15,0,*67
1512259316.82,23141,3.0,73052.0,-13.85,-27.39,-27.93,0,*6A
1512259318.1,23142,3.0,73054.0,-13.85,-27.39,-28.05,0,*69
1512259319.34,23143,3.0,73056.3,-13.85,-27.23,-27.93,0,*63
1512259320.62,23144,3.0,73054.5,-13.83,-27.19,-27.83,0,*6A
1512259321.87,23145,3.0,73056.0,-13.83,-27.29,-27.89,0,*62
1512259323.13,23146,2.94,73052.0,-13.83,-27.19,-27.89,0,*62
1512259324.41,23147,3.0,73058.5,-13.83,-27.29,-27.99,0,*61
1512259325.66,23148,3.0,73050.5,-13.85,-27.51,-28.05,0,*6D
1512259326.9,23149,3.0,73052.8,-13.85,-27.45,-27.93,0,*69
1512259328.2,23150,3.0,73054.8,-13.83,-27.45,-28.05,0,*67
1512259329.47,23151,3.0,73054.5,-13.85,-27.23,-27.83,0,*61
1512259330.73,23152,2.94,73052.0,-13.83,-27.13,-27.83,0,*67
1512259331.98,23153,2.94,73050.3,-13.83,-27.13,-27.67,0,*6C
1512259333.2,23154,3.0,73056.5,-13.85,-27.03,-27.67,0,*6C
1512259334.44,23155,3.0,73052.5,-13.85,-27.35,-27.93,0,*63
1512259335.68,23156,3.0,73056.3,-13.83,-27.13,-27.89,0,*69
1512259336.92,23157,3.0,73054.0,-13.83,-27.03,-27.77,0,*68
1512259338.16,23158,3.0,73052.8,-13.83,-27.13,-27.67,0,*67
1512259339.4,23159,3.0,73056.5,-13.85,-27.35,-27.93,0,*6F
1512259340.68,23160,3.0,73052.8,-13.83,-27.29,-27.99,0,*64
1512259341.94,23161,3.0,73054.0,-13.85,-27.23,-27.83,0,*62
1512259343.18,23162,3.0,73052.0,-13.85,-27.19,-27.71,0,*65
1512259344.46,23163,3.0,73052.3,-13.83,-26.97,-27.67,0,*62
1512259345.73,23164,3.0,73054.3,-13.83,-27.29,-27.83,0,*6B
1512259347.0,23165,3.0,73052.8,-13.83,-27.29,-27.83,0,*6A
1512259348.29,23166,2.94,73048.8,-13.83,-27.19,-27.83,0,*6A
1512259349.55,23167,3.0,73056.5,-13.83,-27.13,-27.83,0,*61
1512259350.8,23168,3.0,73052.3,-13.85,-26.93,-27.51,0,*6E
1512259352.06,23169,3.0,73052.0,-13.81,-27.19,-27.83,0,*67
1512259353.32,23170,3.0,73058.0,-13.83,-26.87,-27.45,0,*61
1512259354.56,23171,3.0,73054.5,-13.83,-27.13,-27.77,0,*6D
1512259355.83,23172,3.0,73054.5,-13.83,-27.29,-27.83,0,*6C
1512259357.08,23173,3.0,73052.8,-13.85,-27.23,-27.89,0,*6B
1512259358.35,23174,3.0,73054.3,-13.83,-27.29,-27.99,0,*61
1512259359.6,23175,3.0,73054.5,-13.83,-27.29,-27.89,0,*61
1512259360.85,23176,3.0,73054.5,-13.83,-27.29,-27.89,0,*62
1512259362.11,23177,3.0,73052.8,-13.83,-27.35,-27.89,0,*6E
1512259363.41,23178,3.0,73054.5,-13.83,-27.35,-27.99,0,*60
1512259364.69,23179,3.0,73054.8,-13.83,-27.19,-27.83,0,*64
1512259365.93,23180,3.0,73054.0,-13.83,-27.13,-27.77,0,*63
1512259367.23,23181,3.0,73060.0,-13.83,-27.45,-27.99,0,*61
1512259368.52,23182,3.0,73054.5,-13.83,-27.35,-28.05,0,*6F
1512259369.79,23183,3.0,73052.8,-13.83,-27.29,-27.83,0,*62
1512259371.06,23184,3.0,73056.5,-13.83,-27.29,-27.83,0,*65
1512259372.36,23185,3.0,73062.5,-13.83,-27.35,-27.99,0,*62
1512259373.63,23186,3.0,73054.8,-13.83,-27.03,-27.61,0,*63
1512259374.85,23187,3.0,73054.8,-13.81,-27.29,-27.89,0,*6E
1512259376.09,23188,2.94,73054.5,-13.83,-26.87,-27.51,0,*63
1512259377.31,23189,3.0,73056.8,-13.81,-27.03,-27.77,0,*69
1512259378.55,23190,3.0,73054.0,-13.81,-27.13,-27.83,0,*6B
1512259379.79,23191,3.0,73058.3,-13.79,-27.13,-27.71,0,*60
1512259381.06,23192,2.94,73054.3,-13.81,-27.35,-28.05,0,*6C
1512259382.33,23193,3.0,73060.0,-13.81,-27.45,-28.05,0,*6A
1512259383.57,23194,3.0,73058.3,-13.81,-27.19,-27.89,0,*6F
1512259384.8,23195,3.0,73054.0,-13.81,-27.29,-27.89,0,*6D
1512259386.02,23196,3.0,73056.0,-13.81,-27.29,-27.89,0,*6E
1512259387.29,23197,2.94,73052.5,-13.79,-27.39,-27.93,0,*62
1512259388.51,23198,2.94,73050.3,-13.81,-27.29,-27.89,0,*60
1512259389.8,23199,3.0,73056.5,-13.79,-27.23,-27.83,0,*66
1512259391.07,23200,3.0,73054.8,-13.79,-27.23,-27.77,0,*6E
1512259392.3,23201,3.0,73052.8,-13.81,-27.19,-27.77,0,*61
1512259393.54,23202,3.0,73056.0,-13.81,-27.19,-27.67,0,*63
1512259394.84,23203,3.0,73052.8,-13.79,-26.97,-27.61,0,*64
1512259396.07,23204,2.94,73050.0,-13.81,-27.03,-27.67,0,*6E
1512259397.32,23205,2.94,73050.8,-13.81,-27.29,-27.83,0,*6D
1512259398.55,23206,3.0,73052.8,-13.81,-27.19,-27.77,0,*66
1512259399.77,23207,2.94,73050.8,-13.81,-27.29,-27.77,0,*64
1512259401.07,23208,2.94,73046.0,-13.79,-27.39,-27.99,0,*6D
1512259402.31,23209,3.0,73048.8,-13.79,-27.13,-27.71,0,*62
1512259403.55,23210,2.94,73040.3,-13.79,-27.13,-27.71,0,*6A
1512259404.81,23211,3.0,73050.8,-13.79,-27.55,-28.09,0,*69
1512259406.08,23212,2.94,73046.8,-13.79,-27.55,-28.09,0,*6A
1512259407.37,23213,2.94,73046.8,-13.79,-27.45,-28.09,0,*6A
1512259408.67,23214,2.94,73048.3,-13.79,-27.39,-27.99,0,*60
1512259409.96,23215,2.94,73046.8,-13.79,-27.39,-27.83,0,*6A
1512259411.23,23216,3.0,73046.0,-13.81,-27.45,-27.99,0,*6E
1512259412.45,23217,3.0,73044.5,-13.81,-27.13,-27.77,0,*6C
1512259413.71,23218,2.94,73050.0,-13.79,-27.13,-27.61,0,*63
1512259415.0,23219,3.0,73050.8,-13.79,-27.23,-27.83,0,*6D
1512259416.27,23220,3.0,73048.3,-13.79,-27.23,-27.77,0,*6C
1512259417.51,23221,2.94,73050.8,-13.79,-27.13,-27.77,0,*6E
1512259418.77,23222,2.94,73050.0,-13.79,-27.39,-27.93,0,*6F
1512259420.04,23223,2.94,73048.8,-13.77,-27.39,-27.83,0,*61
1512259421.31,23224,3.0,73054.3,-13.77,-26.81,-27.39,0,*65
1512259422.55,23225,2.94,73050.3,-13.77,-27.13,-27.61,0,*63
1512259423.79,23226,3.0,73052.0,-13.77,-27.23,-27.71,0,*62
1512259425.05,23227,2.94,73052.5,-13.77,-27.23,-27.83,0,*6E
1512259426.29,23228,2.94,73054.0,-13.77,-27.35,-27.93,0,*67
1512259427.55,23229,2.94,73050.0,-13.77,-27.39,-27.83,0,*6B
1512259428.79,23230,2.94,73050.5,-13.77,-27.39,-27.93,0,*62
1512259430.05,23231,2.94,73048.5,-13.75,-27.35,-27.77,0,*67
1512259431.26,23232,2.94,73054.5,-13.77,-27.13,-27.77,0,*62
1512259432.5,23233,2.94,73048.3,-13.77,-27.39,-27.93,0,*61
1512259433.75,23234,3.0,73052.3,-13.77,-27.29,-27.83,0,*66
1512259434.96,23235,2.94,73050.5,-13.77,-27.13,-27.71,0,*63
1512259436.21,23236,2.94,73054.5,-13.77,-27.29,-27.83,0,*64
1512259437.43,23237,2.94,73048.3,-13.77,-27.29,-27.77,0,*6E
1512259438.69,23238,3.0,73054.0,-13.75,-27.35,-27.77,0,*6E
1512259439.9,23239,2.94,73054.0,-13.77,-27.13,-27.71,0,*6F
1512259441.14,23240,2.94,73050.5,-13.77,-27.35,-27.93,0,*69
1512259442.35,23241,3.0,73056.3,-13.77,-27.55,-27.93,0,*6E
1512259443.61,23242,2.94,73052.3,-13.77,-27.39,-27.83,0,*66
1512259444.88,23243,2.94,73050.3,-13.75,-27.35,-27.89,0,*63
1512259446.17,23244,2.94,73046.8,-13.75,-27.45,-28.05,0,*68
1512259447.44,23245,2.94,73052.0,-13.77,-27.39,-27.83,0,*61
1512259448.7,23246,2.94,73048.3,-13.77,-27.39,-27.83,0,*62
1512259449.94,23247,2.94,73048.5,-13.77,-27.55,-27.99,0,*62
1512259451.21,23248,2.94,73048.5,-13.75,-27.35,-27.89,0,*68
1512259452.44,23249,3.0,73052.5,-13.77,-27.39,-27.93,0,*6C
1512259453.66,23250,2.94,73050.8,-13.77,-27.71,-28.15,0,*69
1512259454.91,23251,2.94,73050.5,-13.77,-27.67,-28.09,0,*62
1512259456.18,23252,3.0,73050.3,-13.75,-27.51,-28.05,0,*6A
1512259457.42,23253,2.94,73046.8,-13.77,-27.55,-28.09,0,*61
1512259458.68,23254,2.94,73046.0,-13.77,-27.39,-27.83,0,*61
1512259459.95,23255,2.94,73048.0,-13.75,-27.23,-27.71,0,*64
1512259461.18,23256,2.94,73048.3,-13.75,-27.55,-27.93,0,*6A
1512259462.43,23257,2.94,73050.3,-13.77,-27.83,-28.15,0,*63
1512259463.69,23258,2.94,73048.8,-13.75,-27.71,-28.09,0,*6E
1512259464.93,23259,2.94,73050.5,-13.77,-27.71,-28.09,0,*6D
1512259466.2,23260,2.94,73050.8,-13.75,-27.71,-28.21,0,*6F
1512259467.46,23261,2.94,73050.3,-13.75,-27.55,-28.05,0,*6E
1512259468.74,23262,2.94,73048.3,-13.75,-27.67,-28.05,0,*6C
1512259469.98,23263,2.94,73048.3,-13.75,-27.67,-27.93,0,*6D
1512259471.2,23264,2.94,73048.5,-13.77,-27.29,-27.93,0,*62
1512259472.46,23265,2.94,73048.5,-13.75,-27.51,-28.05,0,*6E
1512259473.73,23266,2.94,73054.3,-13.75,-27.71,-28.21,0,*69
1512259474.97,23267,2.94,73046.3,-13.75,-27.55,-27.93,0,*68
1512259476.24,23268,2.94,73046.8,-13.77,-27.61,-28.09,0,*6E
1512259477.49,23269,2.94,73050.8,-13.77,-27.71,-28.25,0,*60
1512259478.73,23270,2.94,73044.0,-13.77,-27.45,-27.93,0,*6D
1512259479.99,23271,2.94,73052.0,-13.75,-27.35,-27.89,0,*62
1512259481.26,23272,2.94,73048.5,-13.77,-27.61,-28.09,0,*65
1512259482.54,23273,2.94,73046.8,-13.75,-27.67,-28.05,0,*6C
1512259483.81,23274,2.94,73050.5,-13.75,-27.67,-28.05,0,*6B
1512259485.07,23275,2.94,73048.3,-13.75,-27.39,-27.93,0,*61
1512259486.33,23276,2.94,73048.5,-13.75,-27.35,-27.77,0,*64
1512259487.58,23277,2.94,73048.8,-13.75,-27.19,-27.77,0,*6B
1512259488.84,23278,2.94,73050.8,-13.75,-27.35,-27.71,0,*6C
1512259490.11,23279,2.94,73048.8,-13.75,-27.39,-27.77,0,*67
1512259491.37,23280,2.94,73048.8,-13.75,-27.19,-27.71,0,*65
1512259492.63,23281,2.94,73050.0,-13.75,-27.55,-28.05,0,*60
1512259493.9,23282,2.94,73046.0,-13.75,-27.55,-28.05,0,*63
1512259495.16,23283,2.94,73050.3,-13.75,-27.35,-27.77,0,*6E
1512259496.45,23284,2.94,73050.0,-13.75,-26.93,-27.35,0,*62
1512259497.7,23285,2.94,73050.0,-13.71,-27.07,-27.67,0,*6C
1512259498.95,23286,2.94,73048.0,-13.71,-27.35,-27.71,0,*69
1512259500.22,23287,2.94,73044.3,-13.71,-27.67,-28.05,0,*63
1512259501.49,23288,2.94,73046.8,-13.71,-27.67,-28.05,0,*6C
1512259502.75,23289,2.94,73044.0,-13.71,-27.71,-28.05,0,*6A
1512259503.98,23290,2.94,73048.5,-13.71,-27.89,-28.37,0,*64
1512259505.25,23291,2.94,73048.3,-13.71,-27.71,-28.09,0,*6F
1512259506.48,23292,2.94,73050.5,-13.71,-27.55,-27.93,0,*66
1512259507.74,23293,2.94,73052.0,-13.71,-27.71,-28.09,0,*6D
1512259508.97,23294,2.94,73048.3,-13.71,-27.51,-27.93,0,*64
1512259510.21,23295,2.94,73046.3,-13.71,-27.55,-27.93,0,*61
1512259511.47,23296,2.94,73050.8,-13.71,-27.71,-28.09,0,*68
1512259512.7,23297,2.94,73052.8,-13.71,-27.55,-27.93,0,*63
1512259513.99,23298,2.94,73054.0,-13.71,-27.39,-28.05,0,*66
1512259515.2,23299,2.94,73048.3,-13.69,-27.51,-27.89,0,*6B
1512259516.46,23300,2.94,73046.5,-13.71,-27.67,-28.09,0,*61
1512259517.73,23301,2.94,73046.8,-13.71,-27.77,-28.09,0,*61
1512259518.99,23302,2.94,73046.5,-13.71,-27.55,-28.05,0,*6E
1512259520.26,23303,2.94,73048.8,-13.71,-27.67,-28.05,0,*6E
1512259521.5,23304,2.94,73044.3,-13.69,-27.55,-28.05,0,*61
1512259522.73,23305,2.94,73044.5,-13.71,-27.55,-27.93,0,*69
1512259523.97,23306,2.94,73044.0,-13.69,-27.51,-27.99,0,*6D
1512259525.2,23307,2.94,73046.5,-13.71,-27.55,-27.93,0,*6B
1512259526.48,23308,2.94,73046.5,-13.69,-27.61,-27.99,0,*60
1512259527.74,23309,2.94,73054.8,-13.69,-27.83,-28.21,0,*61
1512259528.97,23310,2.94,73044.3,-13.71,-27.93,-28.37,0,*66
1512259530.19,23311,2.94,73046.0,-13.69,-27.71,-28.15,0,*62
1512259531.46,23312,2.94,73048.0,-13.71,-27.67,-28.05,0,*6E
1512259532.72,23313,2.94,73046.3,-13.71,-27.71,-28.21,0,*6E
1512259533.99,23314,2.94,73048.5,-13.71,-27.77,-28.09,0,*65
1512259535.25,23315,2.94,73044.8,-13.71,-27.77,-28.25,0,*6A
1512259536.49,23316,2.94,73046.5,-13.71,-27.93,-28.37,0,*60
1512259537.75,23317,2.94,73050.8,-13.71,-27.89,-28.25,0,*69
1512259539.01,23318,2.94,73046.0,-13.71,-27.93,-28.25,0,*6D
1512259540.26,23319,2.94,73050.3,-13.69,-27.67,-28.05,0,*6C
1512259541.53,23320,2.94,73052.5,-13.71,-27.67,-28.05,0,*6F
1512259542.75,23321,2.94,73046.8,-13.69,-27.67,-28.15,0,*66
1512259544.01,23322,2.94,73044.5,-13.71,-27.77,-28.21,0,*6A
1512259545.28,23323,2.94,73046.0,-13.69,-27.61,-27.99,0,*69
1512259546.55,23324,2.94,73048.8,-13.69,-27.45,-27.83,0,*63
1512259547.81,23325,2.94,73044.5,-13.71,-27.77,-28.21,0,*6D
1512259549.05,23326,2.94,73044.8,-13.71,-27.93,-28.37,0,*63
1512259550.31,23327,2.94,73048.0,-13.71,-27.71,-28.09,0,*63
1512259551.54,23328,2.94,73046.8,-13.71,-27.89,-28.37,0,*66
1512259552.81,23329,2.94,73048.8,-13.71,-27.93,-28.21,0,*6B
1512259554.07,23330,2.94,73044.0,-13.71,-27.93,-28.09,0,*69
1512259555.33,23331,2.94,73046.0,-13.71,-27.89,-28.21,0,*69
1512259556.6,23332,2.94,73044.8,-13.69,-27.45,-27.99,0,*6F
1512259557.86,23333,2.94,73046.8,-13.71,-27.67,-28.09,0,*61
1512259559.13,23334,2.94,73046.3,-13.71,-27.71,-28.21,0,*6B
1512259560.4,23335,2.94,73044.3,-13.71,-27.67,-28.05,0,*6B
1512259561.66,23336,2.94,73048.8,-13.71,-27.71,-28.21,0,*69
1512259562.93,23337,2.94,73044.8,-13.69,-27.61,-27.99,0,*6C
1512259564.2,23338,2.94,73048.3,-13.71,-27.77,-28.25,0,*65
1512259565.46,23339,2.94,73044.3,-13.71,-27.77,-28.21,0,*60
1512259566.68,23340,2.94,73044.8,-13.69,-27.71,-28.15,0,*66
1512259567.94,23341,2.94,73048.8,-13.71,-27.89,-28.09,0,*64
1512259569.18,23342,2.94,73044.5,-13.67,-27.89,-28.31,0,*6B
1512259570.44,23343,2.94,73042.5,-13.69,-27.83,-28.21,0,*6F
1512259571.71,23344,2.94,73046.8,-13.69,-27.83,-28.21,0,*68
1512259572.97,23345,2.94,73046.5,-13.71,-27.93,-28.25,0,*65
1512259574.24,23346,2.94,73046.0,-13.71,-27.93,-28.25,0,*66
1512259575.47,23347,2.94,73040.8,-13.71,-27.93,-28.37,0,*64
1512259576.71,23348,2.94,73046.3,-13.69,-27.89,-28.21,0,*6E
1512259577.98,23349,2.94,73050.5,-13.71,-28.09,-28.53,0,*64
1512259579.24,23350,2.94,73046.5,-13.71,-28.05,-28.37,0,*62
1512259580.5,23351,2.94,73048.3,-13.71,-28.09,-28.37,0,*6F
1512259581.76,23352,2.94,73044.5,-13.71,-28.09,-28.53,0,*6E
1512259583.03,23353,2.94,73048.8,-13.71,-28.05,-28.53,0,*63
1512259584.32,23354,2.94,73048.8,-13.75,-28.21,-28.59,0,*6C
1512259585.58,23355,2.94,73050.0,-13.75,-27.93,-28.43,0,*60
1512259586.85,23356,2.94,73046.0,-13.75,-27.89,-28.05,0,*6A
1512259588.09,23357,2.94,73044.3,-13.75,-27.71,-27.93,0,*6C
1512259589.35,23358,2.94,73050.5,-13.71,-27.71,-28.05,0,*67
1512259590.62,23359,2.94,73046.3,-13.71,-27.77,-28.09,0,*6C
1512259591.88,23360,2.94,73042.8,-13.71,-27.77,-28.09,0,*66
1512259593.14,23361,2.94,73044.5,-13.71,-27.93,-28.25,0,*63
1512259594.38,23362,2.94,73048.3,-13.71,-27.93,-28.37,0,*63
1512259595.64,23363,2.94,73052.3,-13.71,-27.89,-28.21,0,*6E
1512259596.91,23364,2.94,73048.8,-13.71,-27.89,-28.21,0,*69
1512259598.17,23365,2.94,73046.0,-13.71,-27.89,-28.21,0,*68
1512259599.39,23366,2.94,73046.8,-13.69,-27.89,-28.31,0,*63
1512259600.62,23367,2.94,73046.8,-13.71,-27.93,-28.37,0,*66
1512259601.91,23368,2.94,73044.3,-13.71,-28.05,-28.43,0,*6A
1512259603.2,23369,2.94,73044.0,-13.71,-28.09,-28.25,0,*67
1512259604.46,23370,2.94,73046.8,-13.71,-27.89,-28.21,0,*6C
1512259605.73,23371,2.94,73042.8,-13.75,-27.93,-28.21,0,*62
1512259606.99,23372,2.94,73048.3,-13.71,-27.77,-28.09,0,*65
1512259608.26,23373,2.94,73046.3,-13.71,-27.89,-28.25,0,*6B
1512259609.49,23374,2.94,73050.3,-13.71,-27.93,-28.53,0,*66
1512259610.76,23375,2.94,73050.0,-13.71,-27.89,-28.25,0,*6D
1512259612.02,23376,2.94,73048.8,-13.71,-27.93,-28.21,0,*61
1512259613.28,23377,2.94,73046.5,-13.71,-28.09,-28.37,0,*6B
1512259614.54,23378,2.94,73046.8,-13.71,-27.89,-28.09,0,*6E
1512259615.81,23379,2.94,73042.8,-13.75,-27.77,-28.21,0,*60
1512259617.05,23380,2.94,73046.3,-13.71,-27.93,-28.37,0,*6F
1512259618.32,23381,2.94,73046.5,-13.75,-27.93,-28.25,0,*69
1512259619.61,23382,2.94,73042.8,-13.75,-28.09,-28.43,0,*66
1512259620.84,23383,2.94,73048.0,-13.75,-27.93,-28.37,0,*68
1512259622.08,23384,2.94,73046.0,-13.71,-27.93,-28.37,0,*6B
1512259623.35,23385,2.94,73046.0,-13.75,-28.09,-28.53,0,*60
1512259624.59,23386,2.94,73044.3,-13.77,-28.15,-28.59,0,*66
1512259625.86,23387,2.94,73046.0,-13.75,-28.05,-28.53,0,*6E
1512259627.15,23388,2.94,73042.5,-13.75,-28.05,-28.43,0,*60
1512259628.42,23389,2.94,73044.0,-13.75,-27.89,-28.21,0,*6E
1512259629.66,23390,2.94,73048.0,-13.69,-27.93,-28.21,0,*60
1512259630.92,23391,2.94,73048.8,-13.75,-27.89,-28.09,0,*6D
1512259632.19,23392,2.94,73044.5,-13.75,-27.71,-28.05,0,*65
1512259633.43,23393,2.94,73042.5,-13.77,-27.83,-28.15,0,*6A
1512259634.67,23394,2.94,73044.3,-13.77,-27.77,-28.09,0,*6B
1512259635.94,23395,2.94,73046.0,-13.75,-27.77,-28.21,0,*62
1512259637.21,23396,2.88,73040.0,-13.75,-27.93,-28.25,0,*6F
1512259638.48,23397,2.94,73040.0,-13.75,-27.89,-28.25,0,*65
1512259639.74,23398,2.94,73042.0,-13.75,-27.77,-28.09,0,*65
1512259641.01,23399,2.94,73044.8,-13.75,-27.71,-28.05,0,*6E
1512259642.28,23400,2.94,73042.8,-13.75,-27.77,-28.09,0,*63
1512259643.55,23401,2.94,73044.3,-13.75,-27.77,-28.05,0,*6E
1512259644.81,23402,2.94,73046.5,-13.77,-27.83,-27.99,0,*6E
1512259646.08,23403,2.94,73040.5,-13.75,-27.71,-28.05,0,*6A
1512259647.34,23404,2.94,73040.0,-13.71,-27.71,-28.09,0,*65
1512259648.6,23405,2.94,73046.8,-13.71,-27.93,-28.25,0,*66
1512259649.86,23406,2.94,73046.3,-13.71,-27.89,-28.09,0,*60
1512259651.13,23407,2.94,73046.0,-13.71,-27.77,-28.09,0,*60
1512259652.35,23408,2.94,73046.3,-13.77,-27.93,-28.31,0,*68
1512259653.61,23409,2.94,73044.8,-13.75,-27.89,-28.21,0,*61
1512259654.88,23410,2.94,73044.8,-13.75,-27.71,-28.21,0,*6E
1512259656.15,23411,2.94,73044.8,-13.75,-27.77,-28.09,0,*63
1512259657.39,23412,2.94,73046.0,-13.77,-27.71,-28.05,0,*68
1512259658.66,23413,2.94,73048.5,-13.75,-27.71,-28.05,0,*6B
1512259659.93,23414,2.94,73048.8,-13.75,-27.77,-28.21,0,*6C
1512259661.2,23415,2.94,73048.5,-13.75,-27.89,-28.25,0,*68
1512259662.46,23416,2.94,73048.5,-13.75,-27.89,-28.25,0,*6B
1512259663.73,23417,2.94,73046.0,-13.75,-27.77,-28.09,0,*65
1512259665.0,23418,2.94,73050.8,-13.75,-27.93,-28.21,0,*6A
1512259666.24,23419,2.94,73048.3,-13.77,-27.93,-28.25,0,*6D
1512259667.51,23420,2.94,73044.8,-13.75,-27.55,-28.05,0,*6D
1512259668.75,23421,2.94,73046.3,-13.77,-27.83,-28.15,0,*64
1512259670.02,23422,2.94,73048.3,-13.75,-27.77,-28.09,0,*63
1512259671.26,23423,2.94,73048.0,-13.77,-27.77,-28.21,0,*6A
1512259672.53,23424,2.94,73048.0,-13.77,-27.83,-28.25,0,*62
1512259673.8,23425,2.94,73048.5,-13.75,-27.89,-28.21,0,*6F
1512259675.07,23426,2.94,73044.5,-13.75,-27.71,-28.25,0,*6F
1512259676.31,23427,2.94,73044.0,-13.77,-27.77,-28.25,0,*6A
1512259677.55,23428,2.94,73046.0,-13.75,-27.93,-28.37,0,*6E
1512259678.8,23429,2.88,73042.8,-13.77,-27.93,-28.25,0,*6E
1512259680.06,23430,2.94,73048.0,-13.75,-27.77,-28.09,0,*60
1512259681.33,23431,2.88,73044.8,-13.75,-27.71,-28.09,0,*67
1512259682.6,23432,2.94,73046.8,-13.75,-27.77,-28.21,0,*68
1512259683.86,23433,2.94,73046.3,-13.75,-27.71,-28.09,0,*65
1512259685.14,23434,2.94,73048.0,-13.77,-27.61,-27.99,0,*67
1512259686.35,23435,2.94,73046.0,-13.77,-27.55,-27.93,0,*6B
1512259687.59,23436,2.94,73044.0,-13.75,-27.67,-27.93,0,*6B
1512259688.83,23437,2.88,73040.8,-13.77,-27.71,-28.09,0,*63
1512259690.07,23438,2.88,73042.5,-13.75,-27.71,-27.93,0,*62
1512259691.34,23439,2.88,73044.5,-13.75,-27.67,-28.05,0,*64
1512259692.6,23440,2.88,73046.5,-13.75,-27.71,-28.09,0,*61
1512259693.87,23441,2.94,73048.5,-13.75,-27.71,-28.09,0,*60
1512259695.11,23442,2.94,73050.0,-13.77,-27.77,-28.09,0,*67
1512259696.35,23443,2.94,73046.0,-13.75,-27.51,-27.93,0,*6C
1512259697.59,23444,2.94,73046.3,-13.77,-27.77,-28.09,0,*61
1512259698.86,23445,2.94,73046.3,-13.75,-27.71,-28.09,0,*64
1512259700.12,23446,2.88,73040.3,-13.75,-27.77,-28.21,0,*6B
1512259701.36,23447,2.94,73044.0,-13.75,-27.55,-27.93,0,*6C
1512259702.63,23448,2.94,73044.0,-13.75,-27.67,-28.09,0,*6E
1512259703.87,23449,2.94,73042.3,-13.77,-27.71,-28.05,0,*66
1512259705.14,23450,2.94,73044.3,-13.75,-27.71,-28.09,0,*60
1512259706.4,23451,2.94,73042.5,-13.75,-27.71,-28.09,0,*61